• En Estados Unidos
  • Lista de países
  • Para 7 días
  • Temperatura del agua
  • Mapa Satelital
  • El tiempo en el mapa
  • Informadores
  • user-avatar
    Iniciar sesión

    Tiempo cada hora Uige

    Hoy, 24 Octubre, Miércoles

    Tiempo Temperatura Precipitaciones Viento Presión Humedad
    00:00 +22°C° 0 mm 1 mps 691 mmHg 89%
    01:00 +22°C° 0 mm 1 mps 691 mmHg 90%
    02:00 +22°C° 0.1 mm 1 mps 691 mmHg 90%
    03:00 +22°C° 0.1 mm 1 mps 691 mmHg 90%
    04:00 +22°C° 0.1 mm 1 mps 691 mmHg 90%
    05:00 +22°C° 0.1 mm 1 mps 691 mmHg 88%
    06:00 +22°C° 0.1 mm 1 mps 691 mmHg 87%
    07:00 +23°C° 0.1 mm 1 mps 692 mmHg 86%
    08:00 +24°C° 0.2 mm 1 mps 692 mmHg 82%
    09:00 +25°C° 0.2 mm 1 mps 692 mmHg 79%
    10:00 +26°C° 0.2 mm 1 mps 693 mmHg 75%
    11:00 +27°C° 0.4 mm 1 mps 692 mmHg 72%
    12:00 +28°C° 0.4 mm 1 mps 692 mmHg 70%
    13:00 +28°C° 0.4 mm 1 mps 691 mmHg 67%
    14:00 +28°C° 0.9 mm 1 mps 691 mmHg 71%
    15:00 +27°C° 0.9 mm 1 mps 690 mmHg 76%
    16:00 +26°C° 0.9 mm 1 mps 690 mmHg 80%
    17:00 +25°C° 0.9 mm 1 mps 690 mmHg 83%
    18:00 +24°C° 0.9 mm 1 mps 690 mmHg 86%
    19:00 +21°C° 0.9 mm 0 mps 690 mmHg 89%
    20:00 +21°C° 0 mm 0 mps 691 mmHg 90%
    21:00 +20°C° 0 mm 0 mps 691 mmHg 91%
    22:00 +20°C° 0 mm 0 mps 691 mmHg 91%
    23:00 +22°C° 0.1 mm 1 mps 691 mmHg 93%

    Mañana, 25 Octubre, Jueves

    Tiempo Temperatura Precipitaciones Viento Presión Humedad
    00:00 +21°C° 0.1 mm 1 mps 691 mmHg 94%
    01:00 +21°C° 0.1 mm 1 mps 691 mmHg 95%
    02:00 +21°C° 0.4 mm 1 mps 690 mmHg 96%
    03:00 +21°C° 0.4 mm 1 mps 690 mmHg 97%
    04:00 +21°C° 0.4 mm 1 mps 690 mmHg 98%
    05:00 +21°C° 1 mm 1 mps 690 mmHg 97%
    06:00 +22°C° 1 mm 1 mps 691 mmHg 96%
    07:00 +22°C° 1 mm 1 mps 691 mmHg 95%
    08:00 +24°C° 1.4 mm 1 mps 692 mmHg 90%
    09:00 +25°C° 1.4 mm 1 mps 692 mmHg 85%
    10:00 +26°C° 1.4 mm 1 mps 692 mmHg 81%
    11:00 +27°C° 1.5 mm 1 mps 692 mmHg 76%
    12:00 +28°C° 1.5 mm 1 mps 691 mmHg 72%
    13:00 +29°C° 1.5 mm 1 mps 691 mmHg 68%
    14:00 +30°C° 0.3 mm 1 mps 690 mmHg 64%
    15:00 +30°C° 0.3 mm 1 mps 690 mmHg 60%
    16:00 +28°C° 0.3 mm 0 mps 689 mmHg 57%
    17:00 +26°C° 0.4 mm 0 mps 689 mmHg 64%
    18:00 +24°C° 0.4 mm 0 mps 690 mmHg 72%
    19:00 +22°C° 0.4 mm 0 mps 690 mmHg 79%
    20:00 +22°C° 0.8 mm 0 mps 690 mmHg 83%
    21:00 +23°C° 0.8 mm 1 mps 691 mmHg 87%
    22:00 +22°C° 0.8 mm 1 mps 691 mmHg 91%
    23:00 +22°C° 0.3 mm 1 mps 691 mmHg 93%

    Pasado mañana, 26 Octubre, Viernes

    Tiempo Temperatura Precipitaciones Viento Presión Humedad
    00:00 +22°C° 0.3 mm 1 mps 691 mmHg 95%
    01:00 +21°C° 0.3 mm 1 mps 690 mmHg 96%
    02:00 +21°C° 0.1 mm 1 mps 690 mmHg 97%
    03:00 +21°C° 0.1 mm 1 mps 690 mmHg 97%
    04:00 +21°C° 0.1 mm 1 mps 690 mmHg 97%
    05:00 +22°C° 0.3 mm 1 mps 690 mmHg 94%
    06:00 +23°C° 0.3 mm 1 mps 691 mmHg 91%
    07:00 +23°C° 0.3 mm 1 mps 692 mmHg 89%
    08:00 +25°C° 0.5 mm 2 mps 692 mmHg 80%
    09:00 +27°C° 0.5 mm 2 mps 692 mmHg 72%
    10:00 +29°C° 0.5 mm 2 mps 693 mmHg 63%
    11:00 +31°C° 0.4 mm 2 mps 692 mmHg 57%
    12:00 +32°C° 0.4 mm 2 mps 692 mmHg 52%
    13:00 +33°C° 0.4 mm 1 mps 691 mmHg 46%
    14:00 +32°C° 0.2 mm 1 mps 690 mmHg 51%
    15:00 +31°C° 0.2 mm 1 mps 690 mmHg 56%
    16:00 +30°C° 0.2 mm 1 mps 689 mmHg 61%
    17:00 +29°C° 0.3 mm 1 mps 690 mmHg 66%
    18:00 +27°C° 0.3 mm 1 mps 690 mmHg 71%
    19:00 +24°C° 0.3 mm 0 mps 691 mmHg 77%
    20:00 +25°C° 0.9 mm 1 mps 691 mmHg 82%
    21:00 +24°C° 0.9 mm 1 mps 692 mmHg 88%
    22:00 +23°C° 0.9 mm 1 mps 692 mmHg 93%
    23:00 +23°C° 0.3 mm 1 mps 692 mmHg 94%

    27 Octubre, Sábado

    Tiempo Temperatura Precipitaciones Viento Presión Humedad
    00:00 +23°C° 0.3 mm 1 mps 691 mmHg 95%
    01:00 +23°C° 0.3 mm 1 mps 691 mmHg 96%
    02:00 +23°C° 0.4 mm 1 mps 691 mmHg 97%
    03:00 +22°C° 0.4 mm 1 mps 691 mmHg 97%
    04:00 +22°C° 0.4 mm 1 mps 691 mmHg 97%
    05:00 +23°C° 0.2 mm 1 mps 691 mmHg 96%
    06:00 +23°C° 0.2 mm 1 mps 692 mmHg 94%
    07:00 +24°C° 0.2 mm 1 mps 693 mmHg 93%
    08:00 +26°C° 0.7 mm 1 mps 693 mmHg 83%
    09:00 +28°C° 0.7 mm 1 mps 693 mmHg 74%
    10:00 +30°C° 0.7 mm 1 mps 693 mmHg 64%
    11:00 +30°C° 1.4 mm 1 mps 692 mmHg 66%
    12:00 +30°C° 1.4 mm 1 mps 691 mmHg 67%
    13:00 +30°C° 1.4 mm 1 mps 690 mmHg 69%
    14:00 +29°C° 2.2 mm 1 mps 690 mmHg 74%
    15:00 +28°C° 2.2 mm 1 mps 689 mmHg 79%
    16:00 +27°C° 2.2 mm 1 mps 689 mmHg 84%
    17:00 +26°C° 0.5 mm 1 mps 689 mmHg 86%
    18:00 +25°C° 0.5 mm 1 mps 690 mmHg 88%
    19:00 +24°C° 0.5 mm 1 mps 690 mmHg 90%
    20:00 +24°C° 0.2 mm 1 mps 691 mmHg 91%
    21:00 +23°C° 0.2 mm 1 mps 691 mmHg 92%
    22:00 +21°C° 0.2 mm 0 mps 691 mmHg 94%
    23:00 +21°C° 0.7 mm 0 mps 691 mmHg 95%

    28 Octubre, Domingo

    Tiempo Temperatura Precipitaciones Viento Presión Humedad
    00:00 +21°C° 0.7 mm 0 mps 691 mmHg 96%
    01:00 +20°C° 0.7 mm 0 mps 690 mmHg 97%
    02:00 +20°C° 0.5 mm 0 mps 690 mmHg 97%
    03:00 +20°C° 0.5 mm 0 mps 690 mmHg 97%
    04:00 +20°C° 0.5 mm 0 mps 690 mmHg 98%
    05:00 +21°C° 0 mm 0 mps 691 mmHg 96%
    06:00 +21°C° 0 mm 0 mps 691 mmHg 94%
    07:00 +22°C° 0 mm 0 mps 692 mmHg 93%
    08:00 +24°C° 0 mm 0 mps 692 mmHg 82%
    09:00 +28°C° 0 mm 1 mps 692 mmHg 72%
    10:00 +31°C° 0 mm 1 mps 693 mmHg 61%
    11:00 +31°C° 0.4 mm 1 mps 692 mmHg 61%
    12:00 +32°C° 0.4 mm 1 mps 691 mmHg 60%
    13:00 +32°C° 0.4 mm 1 mps 690 mmHg 60%
    14:00 +31°C° 2 mm 1 mps 689 mmHg 66%
    15:00 +30°C° 2 mm 1 mps 689 mmHg 72%
    16:00 +29°C° 2 mm 1 mps 688 mmHg 77%
    17:00 +27°C° 0.2 mm 1 mps 689 mmHg 80%
    18:00 +26°C° 0.2 mm 1 mps 689 mmHg 83%
    19:00 +25°C° 0.2 mm 1 mps 690 mmHg 86%
    20:00 +24°C° 0 mm 1 mps 690 mmHg 89%
    21:00 +24°C° 0 mm 1 mps 690 mmHg 91%
    22:00 +23°C° 0 mm 1 mps 690 mmHg 93%
    23:00 +23°C° 1.2 mm 1 mps 690 mmHg 95%

    29 Octubre, Lunes

    Tiempo Temperatura Precipitaciones Viento Presión Humedad
    00:00 +23°C° 1.2 mm 1 mps 690 mmHg 96%
    01:00 +22°C° 1.2 mm 1 mps 690 mmHg 97%
    02:00 +20°C° 2.5 mm 0 mps 690 mmHg 97%
    03:00 +20°C° 2.5 mm 0 mps 690 mmHg 97%
    04:00 +20°C° 2.5 mm 0 mps 690 mmHg 97%
    05:00 +21°C° 0.2 mm 0 mps 691 mmHg 97%
    06:00 +21°C° 0.2 mm 0 mps 691 mmHg 96%
    07:00 +21°C° 0.2 mm 0 mps 692 mmHg 95%
    08:00 +25°C° 0 mm 1 mps 692 mmHg 88%
    09:00 +26°C° 0 mm 1 mps 692 mmHg 80%
    10:00 +28°C° 0 mm 1 mps 692 mmHg 72%
    11:00 +29°C° 0.3 mm 1 mps 691 mmHg 66%
    12:00 +30°C° 0.3 mm 1 mps 691 mmHg 61%
    13:00 +32°C° 0.3 mm 1 mps 690 mmHg 55%
    14:00 +31°C° 0.2 mm 1 mps 690 mmHg 58%
    15:00 +31°C° 0.2 mm 1 mps 689 mmHg 61%
    16:00 +30°C° 0.2 mm 1 mps 689 mmHg 64%
    17:00 +28°C° 0.8 mm 1 mps 690 mmHg 71%
    18:00 +24°C° 0.8 mm 0 mps 690 mmHg 79%
    19:00 +23°C° 0.8 mm 0 mps 690 mmHg 86%
    20:00 +22°C° 0.1 mm 0 mps 690 mmHg 88%
    21:00 +24°C° 0.1 mm 1 mps 691 mmHg 91%
    22:00 +23°C° 0.1 mm 1 mps 691 mmHg 93%
    23:00 +23°C° 0.8 mm 1 mps 691 mmHg 95%

    30 Octubre, Martes

    Tiempo Temperatura Precipitaciones Viento Presión Humedad
    00:00 +23°C° 0.8 mm 1 mps 690 mmHg 96%
    01:00 +21°C° 0.8 mm 0 mps 690 mmHg 98%
    02:00 +23°C° 0.3 mm 1 mps 690 mmHg 98%
    03:00 +22°C° 0.3 mm 1 mps 690 mmHg 98%
    04:00 +22°C° 0.3 mm 1 mps 690 mmHg 98%
    05:00 +23°C° 0.1 mm 1 mps 690 mmHg 97%
    06:00 +21°C° 0.1 mm 0 mps 691 mmHg 95%
    07:00 +21°C° 0.1 mm 0 mps 691 mmHg 94%
    08:00 +25°C° 0.1 mm 1 mps 691 mmHg 86%
    09:00 +27°C° 0.1 mm 1 mps 691 mmHg 77%
    10:00 +29°C° 0.1 mm 1 mps 691 mmHg 69%
    11:00 +30°C° 0.6 mm 1 mps 691 mmHg 66%
    12:00 +31°C° 0.6 mm 1 mps 690 mmHg 63%
    13:00 +32°C° 0.6 mm 1 mps 690 mmHg 61%
    14:00 +30°C° 1.6 mm 1 mps 690 mmHg 67%
    15:00 +29°C° 1.6 mm 1 mps 689 mmHg 73%
    16:00 +28°C° 1.6 mm 1 mps 689 mmHg 79%
    17:00 +27°C° 0.6 mm 1 mps 689 mmHg 83%
    18:00 +25°C° 0.6 mm 1 mps 690 mmHg 87%
    19:00 +22°C° 0.6 mm 0 mps 690 mmHg 91%
    20:00 +22°C° 0 mm 0 mps 690 mmHg 91%
    21:00 +23°C° 0 mm 1 mps 690 mmHg 92%
    22:00 +23°C° 0 mm 1 mps 690 mmHg 92%
    23:00 +23°C° 0 mm 1 mps 690 mmHg 93%
    Mostrar más